Dewpoint
32 33 32 32 31 32 31 31 30 33 34 35 38 39 39 39 38 38 37 36 32 32
33 34 34 32 32 32 32 28 31 32 32 34 36 38 38 38 37 37 33 32 31 32
35 35 34 33 31 31 32 30 31 31 32 32 32 34 37 36 35 32 35 33 32 31
35 36 34 33 32 31 31 31 30 32 32 32 32 32 31 31 28 32 32 32 31 30
36 35 34 34 32 32 30 31 30 31 32 33 33 32 32 32 31 31 32 32 30 29
37 36 34 33 32 32 31 30 31 31 32 33 32 31 32 32 30 30 30 30 29 28
38 36 35 33 32 32 31 30 30 32 34 35 31 30 30 30 29 28 27 27 26 25
37 36 33 33 32 32 33 30 31 32 33 34 33 31 29 27 26 25 25 25 24 22
35 34 34 33 33 33 34 32 32 31 32 32 32 32 32 27 23 23 23 24 23 21
33 33 34 34 33 32 33 32 31 31 31 30 32 32 30 26 20 21 23 24 21 20
34 34 34 34 32 30 30 30 30 31 31 31 30 32 30 26 20 22 25 22 21 20
34 33 34 32 32 32 31 30 29 30 30 31 30 31 28 22 23 25 24 24 23 22
33 33 30 32 32 32 30 29 30 28 29 30 28 30 27 23 25 24 25 23 22 23
36 34 32 31 31 30 30 30 30 28 28 28 27 27 27 26 24 24 25 24 23 23
Lifted_Index
5 5 5 5 6 8 11 13 13 13 12 12 11 10 10 10 11 11 10 11 11 11
5 5 5 6 7 9 11 13 13 13 12 12 11 11 10 10 11 11 11 11 11 11
5 5 6 7 9 10 11 12 13 13 13 12 12 12 11 11 11 11 11 11 11 11
5 6 7 9 10 11 12 12 13 13 13 12 12 12 11 11 11 11 11 11 11 11
6 7 8 9 10 11 12 12 12 13 13 12 12 12 12 12 12 12 11 11 11 11
7 8 9 10 10 11 11 12 12 13 12 12 11 11 11 12 12 11 11 12 12 11
8 8 9 10 10 11 11 12 12 12 12 12 11 11 11 11 11 11 11 12 12 11
9 9 9 10 10 11 11 12 12 12 12 11 11 10 10 10 10 10 11 12 11 11
9 9 9 10 10 11 11 11 11 11 11 11 10 10 9 9 9 10 10 10 10 10
9 9 10 10 10 11 11 11 11 11 10 10 9 9 9 9 9 9 9 9 9 8
9 10 10 10 10 11 11 11 10 10 9 9 9 9 8 8 8 8 8 8 8 8
10 10 10 10 11 11 11 10 10 10 9 8 8 8 7 7 7 7 7 7 8 8
10 9 10 10 11 11 11 10 10 9 8 7 7 6 6 6 7 7 7 7 8 8
9 9 9 10 11 11 11 10 10 9 8 6 6 5 5 6 7 7 7 7 8 8